Regional Weather Roundup
Issued by NWS Cleveland, OH

Home | Current Version | Previous Version | Text Only | Print | Product List | Glossary Off
Versions: 1 2 3 4 5 6 7 8 9 10 11 12 13 14 15 16 17 18 19 20 21 22 23 24 25 26 27 28 29 30 31 32 33 34 35 36 37 38 39 40 41 42 43 44 45 46 47 48 49 50

000
ASUS41 KCLE 261702
RWRCLE
OHIO REGIONAL WEATHER ROUNDUP
NATIONAL WEATHER SERVICE CLEVELAND, OH
100 PM EDT MON SEP 26 2016

NOTE: "FAIR" INDICATES FEW OR NO CLOUDS BELOW 12,000 FEET WITH NO
SIGNIFICANT WEATHER AND/OR OBSTRUCTIONS TO VISIBILITY.

OHZ001>008-015>018-024>027-034-035-043-044-261800-
   NORTHWEST OHIO

CITY           SKY/WX    TMP DP  RH WIND       PRES   REMARKS
DEFIANCE       CLOUDY    64  52  64 W7        29.99S
FINDLAY        CLOUDY    63  56  78 W15G23    29.97F
TOLEDO EXPRESS PTSUNNY   63  56  78 W14G25    29.95S
TOLEDO EXEC    CLOUDY    64  60  87 W15       29.95S
LIMA           CLOUDY    61  57  87 W12       30.01S
$$

OHZ009>014-019>023-028>033-038-089-261800-
   NORTHEAST OHIO

CITY           SKY/WX    TMP DP  RH WIND       PRES   REMARKS
CLE-HOPKINS    LGT RAIN  64  59  83 SW8       29.95F
CLE-LAKEFRONT  RAIN      66  62  87 S8        29.91F
CUY CO. ARPT   CLOUDY    64  63  94 SW7       29.94F
LORAIN-ELYRIA  LGT RAIN  61  57  87 SW7       29.96S
ASHTABULA      LGT RAIN  64  62  93 SW5       29.95F
AKRON-CANTON   LGT RAIN  64  56  75 W6        29.98F
WOOSTER        LGT RAIN  61  59  93 SW6       29.98F
MANSFIELD      CLOUDY    61  60  97 SW3       29.97F
YOUNGSTOWN     CLOUDY    64  59  83 SW5       29.97F
$$

OHZ042-051>053-060>062-070>072-077>081-261800-
  SOUTHWEST OHIO

CITY           SKY/WX    TMP DP  RH WIND       PRES   REMARKS
CINC-COVINGTON CLOUDY    62  59  90 W12       30.07S
CINC-LUNKEN    CLOUDY    62  60  93 VRB3      30.05F
HAMILTON       CLOUDY    63  58  83 W7        30.07F
DAYTON         CLOUDY    61  56  83 NW9       30.05F
WRIGHT-PAT AFB CLOUDY    61  59  94 W9        30.04R
DAYTON GENERAL CLOUDY    61  56  83 W9        30.05S
WILMINGTON     LGT RAIN  61  60  97 W12       30.04F
$$

OHZ036-037-039>041-045>050-054>059-063>069-073>076-082>088-261800-
  CENTRAL AND SOUTHEAST OHIO

CITY           SKY/WX    TMP DP  RH WIND       PRES   REMARKS
COLUMBUS       LGT RAIN  63  62  97 S7        30.00R
OSU AIRPORT    LGT RAIN  62  61  96 SW7       30.01S
BOLTON FIELD   CLOUDY    63  61  94 S6        30.01F
RICKENBACK AFB CLOUDY    62  60  95 S8        30.01F
NEWARK         LGT RAIN  64  60  87 SW5       30.00S
MARION         CLOUDY    62  58  86 W10       30.01R
LANCASTER      LGT RAIN  66  58  75 W3        30.03S
ZANESVILLE     CLOUDY    71  57  61 N5        30.00S
NEW PHILLY     CLOUDY    70  56  61 NW7       29.99F
$$




USA.gov is the U.S. government's official web portal to all federal, state and local government web resources and services.